This is the latest recevied weather packets stored in our database for station/object DC9PA-13. If no packets are shown the sender has not sent any weather packets the latest 1 day(s).
| Time | Temp. | Humidity | Pressure | Rain* | Wind** | Luminosity | Snow |
|---|---|---|---|---|---|---|---|
| 1778020296 | 13.33° C | 93% | 994.9 hPa | 1.27 mm | 0.89 m/s, 270° | - | - |
| 1778020266 | 13.33° C | 92% | 994.9 hPa | 1.27 mm | 0.45 m/s, 112° | - | - |
| 1778020237 | 13.33° C | 92% | 995 hPa | 1.27 mm | 0.89 m/s, 180° | - | - |
| 1778020216 | 13.33° C | 92% | 995 hPa | 1.27 mm | 1.34 m/s, 180° | - | - |
| 1778020176 | 13.33° C | 92% | 995 hPa | 1.27 mm | 0.89 m/s, 202° | - | - |
| 1778020147 | 13.33° C | 92% | 995 hPa | 0.76 mm | 0.89 m/s, 180° | - | - |
| 1778020116 | 13.33° C | 93% | 995 hPa | 0.76 mm | 1.79 m/s, 180° | - | - |
| 1778020086 | 13.33° C | 93% | 995 hPa | 0.76 mm | 1.34 m/s, 202° | - | - |
| 1778020056 | 12.78° C | 92% | 995 hPa | 0.76 mm | 0.89 m/s, 202° | - | - |
| 1778020026 | 12.78° C | 92% | 995 hPa | 0.76 mm | 1.79 m/s, 315° | - | - |
| 1778019996 | 12.78° C | 93% | 995 hPa | 0.76 mm | 1.34 m/s, 202° | - | - |
| 1778019966 | 12.78° C | 92% | 995 hPa | 0.76 mm | 0.89 m/s, 180° | - | - |
| 1778019906 | 12.78° C | 92% | 995.2 hPa | 0.76 mm | 1.34 m/s, 180° | - | - |
| 1778019846 | 12.78° C | 93% | 995.2 hPa | 0.76 mm | 0.89 m/s, 180° | - | - |
| 1778019837 | 12.78° C | 93% | 995.2 hPa | 0.76 mm | 0 m/s | - | - |
| 1778019786 | 12.78° C | 93% | 995.2 hPa | 0.76 mm | 0.89 m/s, 180° | - | - |
| 1778019756 | 12.78° C | 93% | 995.2 hPa | 0.76 mm | 0.45 m/s, 180° | - | - |
| 1778019726 | 12.78° C | 93% | 995.2 hPa | 0.76 mm | 0.89 m/s, 180° | - | - |
| 1778019696 | 12.78° C | 93% | 995.2 hPa | 0.76 mm | 1.79 m/s, 180° | - | - |
| 1778019687 | 12.78° C | 93% | 995.2 hPa | 0.76 mm | 0.89 m/s, 135° | - | - |
| 1778019657 | 12.78° C | 93% | 994.9 hPa | 0.76 mm | 0.89 m/s, 180° | - | - |
| 1778019606 | 12.78° C | 93% | 994.9 hPa | 0.76 mm | 0.89 m/s, 180° | - | - |
| 1778019576 | 12.78° C | 93% | 994.9 hPa | 0.76 mm | 0.89 m/s, 180° | - | - |
| 1778019547 | 12.78° C | 93% | 994.9 hPa | 0.76 mm | 0.89 m/s, 180° | - | - |
| 1778019516 | 12.78° C | 93% | 994.9 hPa | 0.76 mm | 0.89 m/s, 180° | - | - |
* Rain since midnight (hover to see other rain measurements)
** Current wind speed in m/s (hover to see current wind gust speed)